Weather History for Ogden, UT

Change the Weather History Date:

Thursday, March 27, 2014

  Actual Average Record
Temperature  
Mean Temperature 40 °F -  
Max Temperature 46 °F 55 °F 73 °F (1953)
Min Temperature 33 °F 32 °F 14 °F (1931)
Degree Days  
Heating Degree Days 26    
Moisture  
Dew Point 32 °F    
Average Humidity 77    
Maximum Humidity 92    
Minimum Humidity 40    
Precipitation  
Precipitation 0.10 in - - ()
Sea Level Pressure  
Sea Level Pressure 29.81 in    
Wind  
Wind Speed 9 mph (South)    
Max Wind Speed 17 mph    
Max Gust Speed 29 mph    
Visibility 9 miles    
Events Fog , Rain , Snow , Thunderstorm    
Averages and records for this station are not official NWS values.
T = Trace of Precipitation, MM = Missing Value Source: NWS Daily Summary

Daily Weather History Graph

Daily Weather History Graph

Search for Another Location

Airport:

Trip Planner

Search our weather history database for the weather conditions in past years. The results will help you decide how hot, cold, wet, or windy it might be!

Date:

Astronomy

Mar. 27, 2014 Rise Set
Actual Time 7:19 AM MDT 7:47 PM MDT
Civil Twilight 6:51 AM MDT 8:15 PM MDT
Nautical Twilight 6:19 AM MDT 8:48 PM MDT
Astronomical Twilight 5:45 AM MDT 9:21 PM MDT
Moon 5:15 AM MDT (3/27) 4:38 PM MDT (3/27)
Length of Visible Light 13h 23m
Length of Day
12h 28m
Waning Crescent, 12% of the Moon is Illuminated
Mar 27
Waning Crescent
Mar 30
New
Apr 7
First Quarter
Apr 15
Full
Apr 22
Last Quarter

Hourly Weather History & Observations

Time (MDT) Temp. Windchill Dew Point Humidity Pressure Visibility Wind Dir Wind Speed Gust Speed Precip Events Conditions
12:53 AM 39.0 °F 33.4 °F 33.1 °F 79% 29.65 in 10.0 mi SSE 8.1 mph - N/A   Partly Cloudy
1:53 AM 39.0 °F 34.0 °F 34.0 °F 82% 29.65 in 10.0 mi SSE 6.9 mph - N/A   Overcast
2:53 AM 39.0 °F 33.4 °F 33.1 °F 79% 29.65 in 10.0 mi SSE 8.1 mph - N/A   Mostly Cloudy
3:53 AM 39.0 °F 32.8 °F 32.0 °F 76% 29.65 in 10.0 mi South 9.2 mph - N/A   Mostly Cloudy
4:53 AM 39.9 °F 32.5 °F 33.1 °F 77% 29.65 in 10.0 mi South 12.7 mph - N/A   Overcast
5:53 AM 41.0 °F 33.5 °F 32.0 °F 70% 29.67 in 10.0 mi SSW 13.8 mph 21.9 mph 0.00 in Rain Light Rain
6:33 AM 39.0 °F 33.4 °F 33.1 °F 79% 29.72 in 9.0 mi SW 8.1 mph 19.6 mph 0.01 in Rain Light Rain
6:53 AM 39.0 °F - 34.0 °F 82% 29.70 in 10.0 mi Calm Calm - 0.02 in Rain Light Rain
7:46 AM 39.9 °F 33.4 °F 32.0 °F 73% 29.75 in 10.0 mi West 10.4 mph - 0.00 in   Overcast
7:53 AM 39.0 °F 32.8 °F 33.1 °F 79% 29.73 in 10.0 mi West 9.2 mph - 0.00 in   Overcast
8:53 AM 39.0 °F 34.8 °F 34.0 °F 82% 29.76 in 10.0 mi South 5.8 mph - 0.01 in Rain Light Rain
9:13 AM 39.0 °F 31.4 °F 33.1 °F 79% 29.78 in 9.0 mi WSW 12.7 mph 20.7 mph 0.01 in Rain Light Rain
9:53 AM 37.9 °F 35.5 °F 34.0 °F 86% 29.79 in 10.0 mi NNW 3.5 mph - 0.01 in   Overcast
10:10 AM 39.0 °F - 34.0 °F 82% 29.81 in 10.0 mi Calm Calm - 0.00 in Rain Light Rain
10:53 AM 37.9 °F 32.7 °F 34.0 °F 86% 29.81 in 10.0 mi NNE 6.9 mph - 0.00 in   Overcast
11:02 AM 37.9 °F 32.1 °F 34.0 °F 86% 29.83 in 10.0 mi NE 8.1 mph - 0.00 in Rain Light Rain
11:12 AM 37.0 °F 30.4 °F 33.1 °F 86% 29.83 in 10.0 mi ENE 9.2 mph - 0.00 in Rain Light Rain
11:26 AM 37.0 °F 30.4 °F 33.1 °F 86% 29.83 in 10.0 mi East 9.2 mph - 0.00 in Rain Light Rain
11:53 AM 39.0 °F 34.0 °F 34.0 °F 82% 29.81 in 10.0 mi East 6.9 mph - 0.00 in Rain Light Rain
12:00 PM 39.0 °F 33.4 °F 34.0 °F 82% 29.83 in 10.0 mi ESE 8.1 mph - 0.00 in   Mostly Cloudy
12:09 PM 41.0 °F 36.4 °F 34.0 °F 76% 29.83 in 10.0 mi East 6.9 mph - 0.00 in   Scattered Clouds
12:41 PM 42.1 °F 35.2 °F 34.0 °F 73% 29.81 in 10.0 mi South 12.7 mph - 0.00 in Thunderstorm Mostly Cloudy
12:53 PM 42.1 °F 36.6 °F 33.1 °F 70% 29.80 in 10.0 mi West 9.2 mph - 0.00 in Thunderstorm Overcast
12:58 PM 37.0 °F 27.4 °F 32.0 °F 82% 29.84 in 2.5 mi NW 17.3 mph 28.8 mph 0.01 in Rain , Thunderstorm Light Thunderstorms and Rain
1:00 PM 35.1 °F 25.5 °F 30.9 °F 85% 29.84 in 1.8 mi WNW 15.0 mph 28.8 mph 0.01 in Snow , Thunderstorm Light Thunderstorms and Snow
1:04 PM 34.0 °F 23.4 °F 30.0 °F 85% 29.84 in 0.8 mi NW 17.3 mph - 0.03 in Snow , Thunderstorm Light Thunderstorms and Snow
1:08 PM 33.1 °F 24.4 °F 30.9 °F 92% 29.84 in 0.5 mi NNW 11.5 mph 21.9 mph 0.05 in Fog , Snow , Thunderstorm Light Thunderstorms and Snow
1:13 PM 33.1 °F 24.4 °F 30.9 °F 92% 29.85 in 1.0 mi NNW 11.5 mph - 0.06 in Snow , Thunderstorm Light Thunderstorms and Snow
1:29 PM 34.0 °F 28.8 °F 32.0 °F 92% 29.86 in 2.0 mi North 5.8 mph - 0.06 in Snow , Thunderstorm Light Snow
1:38 PM 35.1 °F 31.0 °F 33.1 °F 92% 29.86 in 5.0 mi Variable 4.6 mph - 0.06 in Snow , Thunderstorm Light Snow
1:46 PM 35.1 °F 29.3 °F 33.1 °F 92% 29.87 in 9.0 mi East 6.9 mph - 0.06 in   Overcast
1:53 PM 36.0 °F 30.3 °F 33.1 °F 89% 29.86 in 10.0 mi East 6.9 mph - 0.06 in   Overcast
2:14 PM 37.9 °F 32.7 °F 34.0 °F 86% 29.86 in 10.0 mi East 6.9 mph - N/A   Overcast
2:53 PM 39.9 °F 37.8 °F 32.0 °F 73% 29.84 in 10.0 mi SSE 3.5 mph - N/A   Overcast
3:53 PM 43.0 °F 37.7 °F 32.0 °F 65% 29.84 in 10.0 mi SSW 9.2 mph - N/A   Mostly Cloudy
4:03 PM 45.0 °F 38.9 °F 33.1 °F 63% 29.85 in 10.0 mi SSW 12.7 mph - N/A   Scattered Clouds
4:53 PM 44.1 °F 39.5 °F 30.0 °F 58% 29.83 in 10.0 mi WSW 8.1 mph - N/A   Mostly Cloudy
5:53 PM 45.0 °F 39.7 °F 25.0 °F 46% 29.83 in 10.0 mi West 10.4 mph - N/A   Overcast
6:53 PM 46.0 °F 39.9 °F 23.0 °F 40% 29.83 in 10.0 mi West 13.8 mph 19.6 mph N/A   Overcast
7:53 PM 43.0 °F 39.5 °F 28.0 °F 56% 29.86 in 10.0 mi WNW 5.8 mph - N/A   Overcast
8:53 PM 39.9 °F 35.1 °F 30.0 °F 68% 29.91 in 10.0 mi East 6.9 mph - N/A   Mostly Cloudy
9:53 PM 39.9 °F 33.4 °F 30.9 °F 70% 29.94 in 10.0 mi SSE 10.4 mph - N/A   Overcast
10:53 PM 39.9 °F 34.5 °F 30.9 °F 70% 29.95 in 10.0 mi SSE 8.1 mph - N/A   Overcast
11:53 PM 39.0 °F 34.0 °F 28.9 °F 67% 29.97 in 10.0 mi SSE 6.9 mph - N/A   Clear